Погода в Медном

Россия / Тверская область     56°55′38″N   35°28′24″E
темп.,
°C
ветер,
м/с
пор.,
м/с
влажн.,
%
обл.,
%
осадки,
мм/ч
давл.,
гПа
погр.,
м
18 апреля, вс
вс1800:00+7св5136053 0.0 1023432
03:00+5св413735 0.0 1024396
06:00+4св413790 0.0 1024406
09:00+9всв611610 0.0 1023941
12:00+12всв68435 0.0 10231555
15:00+13всв683958 0.0 10232149
18:00+11св61047100 0.0 10231125
21:00+8всв5136224 0.0 1024612
19 апреля, пн
пн1900:00+6всв5117756 0.0 1025548
03:00+5всв41087100 0.0 1026385
06:00+4всв4989100 0.0 1026481
09:00+5всв5779100 0.0 1027716
12:00+6всв5777100 0.0 1027893
15:00+9в5755100 0.0 10261443
18:00+8в4760100 0.0 10261351
21:00+6в386497 0.0 1026671
20 апреля, вт
вт2000:00+4всв41063100 0.0 1026518
03:00+2всв4106891 0.0 1025417
06:00+2всв4106798 0.0 1024525
09:00+4в5860100 0.0 1023819
12:00+5в6872100 0.0 1022954
15:00+5в5972100 0.2 10211022
18:00+4в51083100 0.0 1019864
21:00+3в4995100 0.1 1017759
21 апреля, ср
ср2100:00+2всв51297100 0.8 1013658
03:00+2св51497100 5.0 1008688
06:00+1всв51297100 1.8 1005590
09:000всв41199100 6.8 1002384
12:00+1св3799100 3.8 1000282
15:00+2зсз3499100 7.1 1000177
18:00+2зюз3999100 2.3 1002589
21:00+2юз41094100 2.4 1005665
22 апреля, чт
чт2200:00+2ююз51195100 0.1 1007640
03:00+2ююз51098100 0.1 1008701
06:00+3ююз51198100 0.5 1009742
09:00+4ююз51197100 1.1 1010697
12:00+7ююз51085100 0.3 1012983
15:00+11ююз597163 0.6 10121314
18:00+10ю497798 0.1 1013751
21:00+7ююв4129192 0.2 1014342